Tracking 19795 objects as of 20-Jul-2019
HD Live streaming from Space Station
objects crossing your sky now

NOAA 16 DEB

Track NOAA 16 DEB now!
10-day predictions


NORAD ID: 41531
Int'l Code: 2000-055NF
Perigee: 853.1 km
Apogee: 905.8 km
Inclination: 98.8 °
Period: 102.4 minutes
Semi major axis: 7250 km
RCS: Unknown
Launch date: September 21, 2000
Source: United States (US)
Launch site: AIR FORCE WESTERN TEST RANGE (AFWTR)

Note: This is SATELLITE DEBRIS
aabbcc
Your satellite tracking list
Your tracking list is empty




NASA's NSSDC Master Catalog

Two Line Element Set (TLE):
1 41531U 00055NF  19201.41462040  .00000378  00000-0  25408-3 0  9998
2 41531  98.8296 259.9875 0036347 167.2890 192.9203 14.06216519167431
Source of the keplerian elements: AFSPC